| time (UTC) | temp F | wind direction | speed MPH | gust MPH | rain 1hr in | rain 24hr in | rain mn in | humidity % | barometer mb |
| 20260906211030 | 94 | 164 | 4.0 | 9.0 | 0.00 | 0.00 | 0.00 | 33 | 1017.7 |
| 20260906210028 | 94 | 209 | 3.0 | 10.0 | 0.00 | 0.00 | 0.00 | 34 | 1017.7 |
| 20260906205026 | 94 | 209 | 5.0 | 13.0 | 0.00 | 0.00 | 0.00 | 34 | 1017.8 |
| 20260906204024 | 96 | 192 | 3.0 | 8.0 | 0.00 | 0.00 | 0.00 | 33 | 1018.0 |
| 20260906203023 | 93 | 232 | 4.0 | 17.0 | 0.00 | 0.00 | 0.00 | 35 | 1018.0 |
| 20260906202021 | 95 | 213 | 4.0 | 12.0 | 0.00 | 0.00 | 0.00 | 35 | 1017.7 |
| 20260906201019 | 95 | 215 | 4.0 | 11.0 | 0.00 | 0.00 | 0.00 | 35 | 1017.9 |
| 20260906200017 | 94 | 204 | 3.0 | 11.0 | 0.00 | 0.00 | 0.00 | 35 | 1018.1 |
| 20260906195035 | 94 | 233 | 3.0 | 11.0 | 0.00 | 0.00 | 0.00 | 36 | 1018.2 |
| 20260906194033 | 93 | 218 | 2.0 | 10.0 | 0.00 | 0.00 | 0.00 | 36 | 1018.5 |
| 20260906193052 | 94 | 204 | 4.0 | 14.0 | 0.00 | 0.00 | 0.00 | 36 | 1018.6 |
| 20260906192030 | 94 | 228 | 2.0 | 8.0 | 0.00 | 0.00 | 0.00 | 36 | 1018.7 |
| 20260906191028 | 92 | 223 | 3.0 | 13.0 | 0.00 | 0.00 | 0.00 | 38 | 1018.8 |
| 20260906190026 | 93 | 212 | 3.0 | 9.0 | 0.00 | 0.00 | 0.00 | 38 | 1018.9 |
| 20260906185024 | 93 | 182 | 3.0 | 15.0 | 0.00 | 0.00 | 0.00 | 37 | 1019.1 |
| 20260906184023 | 93 | 215 | 4.0 | 9.0 | 0.00 | 0.00 | 0.00 | 38 | 1019.4 |
| 20260906183021 | 93 | 210 | 3.0 | 10.0 | 0.00 | 0.00 | 0.00 | 38 | 1019.5 |
| 20260906182019 | 92 | 217 | 4.0 | 17.0 | 0.00 | 0.00 | 0.00 | 38 | 1019.5 |
| 20260906181017 | 93 | 176 | 3.0 | 11.0 | 0.00 | 0.00 | 0.00 | 39 | 1019.7 |
| 20260906180015 | 91 | 225 | 3.0 | 13.0 | 0.00 | 0.00 | 0.00 | 40 | 1019.9 |
| 20260906175033 | 91 | 211 | 5.0 | 17.0 | 0.00 | 0.00 | 0.00 | 41 | 1019.9 |
| 20260906174052 | 91 | 218 | 5.0 | 13.0 | 0.00 | 0.00 | 0.00 | 41 | 1020.0 |
| 20260906173030 | 92 | 220 | 4.0 | 13.0 | 0.00 | 0.00 | 0.00 | 42 | 1020.1 |
| 20260906172028 | 91 | 227 | 3.0 | 9.0 | 0.00 | 0.00 | 0.00 | 43 | 1020.2 |
| 20260906171026 | 91 | 224 | 3.0 | 14.0 | 0.00 | 0.00 | 0.00 | 43 | 1020.2 |
| 20260906170025 | 90 | 213 | 4.0 | 17.0 | 0.00 | 0.00 | 0.00 | 43 | 1020.3 |
| 20260906165043 | 89 | 220 | 3.0 | 10.0 | 0.00 | 0.00 | 0.00 | 45 | 1020.4 |
| 20260906164021 | 89 | 227 | 4.0 | 11.0 | 0.00 | 0.00 | 0.00 | 45 | 1020.5 |
| 20260906163019 | 89 | 215 | 5.0 | 12.0 | 0.00 | 0.00 | 0.00 | 44 | 1020.4 |
| 20260906162017 | 89 | 220 | 3.0 | 9.0 | 0.00 | 0.00 | 0.00 | 47 | 1020.4 |
| 20260906161035 | 88 | 226 | 3.0 | 7.0 | 0.00 | 0.00 | 0.00 | 47 | 1020.3 |
| 20260906160034 | 87 | 211 | 3.0 | 10.0 | 0.00 | 0.00 | 0.00 | 49 | 1020.3 |
| 20260906155032 | 87 | 209 | 5.0 | 12.0 | 0.00 | 0.00 | 0.00 | 49 | 1020.1 |
| 20260906154030 | 86 | 220 | 4.0 | 9.0 | 0.00 | 0.00 | 0.00 | 50 | 1020.1 |
| 20260906153028 | 86 | 221 | 6.0 | 15.0 | 0.00 | 0.00 | 0.00 | 50 | 1020.3 |
| 20260906152027 | 86 | 204 | 4.0 | 13.0 | 0.00 | 0.00 | 0.00 | 51 | 1020.3 |
| 20260906151025 | 86 | 203 | 4.0 | 13.0 | 0.00 | 0.00 | 0.00 | 51 | 1020.3 |
| 20260906150023 | 85 | 217 | 4.0 | 13.0 | 0.00 | 0.00 | 0.00 | 51 | 1020.2 |
| 20260906145021 | 85 | 210 | 4.0 | 16.0 | 0.00 | 0.00 | 0.00 | 52 | 1020.0 |
| 20260906144019 | 83 | 208 | 3.0 | 10.0 | 0.00 | 0.00 | 0.00 | 53 | 1020.0 |
| 20260906143017 | 82 | 217 | 4.0 | 10.0 | 0.00 | 0.00 | 0.00 | 55 | 1020.3 |
| 20260906142016 | 81 | 220 | 4.0 | 9.0 | 0.00 | 0.00 | 0.00 | 56 | 1020.1 |
| 20260906141034 | 81 | 227 | 4.0 | 9.0 | 0.00 | 0.00 | 0.00 | 55 | 1020.0 |
| 20260906140032 | 80 | 212 | 3.0 | 6.0 | 0.00 | 0.00 | 0.00 | 57 | 1019.9 |
| 20260906135030 | 79 | 213 | 2.0 | 7.0 | 0.00 | 0.00 | 0.00 | 58 | 1019.7 |
| 20260906134029 | 78 | 204 | 3.0 | 7.0 | 0.00 | 0.00 | 0.00 | 59 | 1019.5 |
| 20260906133027 | 76 | 198 | 2.0 | 6.0 | 0.00 | 0.00 | 0.00 | 62 | 1019.4 |
| 20260906132025 | 75 | 209 | 2.0 | 5.0 | 0.00 | 0.00 | 0.00 | 62 | 1019.4 |
| 20260906131023 | 75 | 208 | 3.0 | 7.0 | 0.00 | 0.00 | 0.00 | 62 | 1019.3 |
| 20260906130021 | 75 | 212 | 3.0 | 8.0 | 0.00 | 0.00 | 0.00 | 62 | 1019.2 |
| 20260906125039 | 74 | 211 | 2.0 | 5.0 | 0.00 | 0.00 | 0.00 | 63 | 1019.5 |
| 20260906124018 | 74 | 218 | 1.0 | 5.0 | 0.00 | 0.00 | 0.00 | 63 | 1019.3 |
| 20260906123016 | 74 | 211 | 1.0 | 4.0 | 0.00 | 0.00 | 0.00 | 63 | 1019.1 |
| 20260906122034 | 74 | 223 | 1.0 | 5.0 | 0.00 | 0.00 | 0.00 | 62 | 1018.8 |
| 20260906121032 | 74 | 202 | 1.0 | 4.0 | 0.00 | 0.00 | 0.00 | 62 | 1018.7 |
| 20260906120031 | 75 | 201 | 2.0 | 7.0 | 0.00 | 0.00 | 0.00 | 61 | 1018.7 |
| 20260906115029 | 74 | 204 | 2.0 | 4.0 | 0.00 | 0.00 | 0.00 | 61 | 1018.7 |
| 20260906114027 | 75 | 198 | 2.0 | 6.0 | 0.00 | 0.00 | 0.00 | 61 | 1018.7 |
| 20260906113025 | 75 | 184 | 2.0 | 6.0 | 0.00 | 0.00 | 0.00 | 61 | 1018.5 |
| 20260906112024 | 75 | 210 | 2.0 | 6.0 | 0.00 | 0.00 | 0.00 | 60 | 1018.5 |
| 20260906111022 | 75 | 230 | 2.0 | 6.0 | 0.00 | 0.00 | 0.00 | 60 | 1018.6 |
| 20260906110020 | 75 | 209 | 1.0 | 4.0 | 0.00 | 0.00 | 0.00 | 60 | 1018.7 |
| 20260906105018 | 75 | 213 | 1.0 | 4.0 | 0.00 | 0.00 | 0.00 | 60 | 1018.4 |
| 20260906104016 | 75 | 206 | 1.0 | 2.0 | 0.00 | 0.00 | 0.00 | 59 | 1018.4 |
| 20260906103054 | 76 | 199 | 1.0 | 3.0 | 0.00 | 0.00 | 0.00 | 59 | 1018.3 |
| 20260906102033 | 76 | 197 | 1.0 | 6.0 | 0.00 | 0.00 | 0.00 | 58 | 1018.2 |
| 20260906101031 | 76 | 201 | 2.0 | 6.0 | 0.00 | 0.00 | 0.00 | 58 | 1018.1 |
| 20260906100029 | 76 | 204 | 2.0 | 6.0 | 0.00 | 0.00 | 0.00 | 58 | 1018.2 |
| 20260906095027 | 76 | 208 | 2.0 | 6.0 | 0.00 | 0.00 | 0.00 | 57 | 1018.3 |
| 20260906094025 | 76 | 210 | 3.0 | 8.0 | 0.00 | 0.00 | 0.00 | 57 | 1018.1 |
| 20260906093044 | 76 | 213 | 2.0 | 6.0 | 0.00 | 0.00 | 0.00 | 57 | 1018.1 |
| 20260906092042 | 76 | 203 | 2.0 | 5.0 | 0.00 | 0.00 | 0.00 | 57 | 1018.1 |
| 20260906091100 | 77 | 218 | 1.0 | 4.0 | 0.00 | 0.00 | 0.00 | 57 | 1018.1 |
| 20260906090018 | 77 | 201 | 2.0 | 5.0 | 0.00 | 0.00 | 0.00 | 56 | 1018.2 |
| 20260906085016 | 77 | 215 | 1.0 | 6.0 | 0.00 | 0.00 | 0.00 | 56 | 1018.2 |
| 20260906084034 | 77 | 193 | 1.0 | 3.0 | 0.00 | 0.00 | 0.00 | 56 | 1018.3 |
| 20260906083033 | 77 | 208 | 1.0 | 4.0 | 0.00 | 0.00 | 0.00 | 56 | 1018.3 |
| 20260906082031 | 78 | 216 | 2.0 | 4.0 | 0.00 | 0.00 | 0.00 | 55 | 1018.1 |
| 20260906081029 | 78 | 200 | 2.0 | 5.0 | 0.00 | 0.00 | 0.00 | 54 | 1018.3 |
| 20260906080027 | 78 | 198 | 2.0 | 6.0 | 0.00 | 0.00 | 0.00 | 54 | 1018.3 |
| 20260906075046 | 78 | 221 | 2.0 | 5.0 | 0.00 | 0.00 | 0.00 | 54 | 1018.3 |
| 20260906074024 | 79 | 203 | 2.0 | 4.0 | 0.00 | 0.00 | 0.00 | 54 | 1018.2 |
| 20260906073022 | 79 | 209 | 2.0 | 6.0 | 0.00 | 0.00 | 0.00 | 53 | 1018.2 |
| 20260906072040 | 79 | 206 | 2.0 | 6.0 | 0.00 | 0.00 | 0.00 | 53 | 1018.4 |
| 20260906071018 | 79 | 199 | 1.0 | 5.0 | 0.00 | 0.00 | 0.00 | 52 | 1018.4 |
| 20260906070017 | 80 | 213 | 2.0 | 7.0 | 0.00 | 0.00 | 0.00 | 52 | 1018.4 |
| 20260906065035 | 80 | 213 | 2.0 | 6.0 | 0.00 | 0.00 | 0.00 | 51 | 1018.4 |
| 20260906064033 | 80 | 201 | 3.0 | 6.0 | 0.00 | 0.00 | 0.00 | 51 | 1018.3 |
| 20260906063031 | 80 | 211 | 3.0 | 7.0 | 0.00 | 0.00 | 0.00 | 51 | 1018.4 |
| 20260906062029 | 80 | 193 | 2.0 | 7.0 | 0.00 | 0.00 | 0.00 | 51 | 1018.2 |
| 20260906061048 | 80 | 214 | 2.0 | 9.0 | 0.00 | 0.00 | 0.00 | 51 | 1018.3 |
| 20260906060046 | 81 | 219 | 2.0 | 9.0 | 0.00 | 0.00 | 0.00 | 50 | 1018.3 |
| 20260906055024 | 81 | 211 | 3.0 | 10.0 | 0.00 | 0.00 | 0.00 | 50 | 1018.4 |
| 20260906054022 | 82 | 214 | 3.0 | 7.0 | 0.00 | 0.00 | 0.00 | 49 | 1018.3 |
| 20260906053100 | 82 | 217 | 3.0 | 10.0 | 0.00 | 0.00 | 0.00 | 48 | 1018.4 |
| 20260906052039 | 82 | 218 | 3.0 | 9.0 | 0.00 | 0.00 | 0.00 | 48 | 1018.2 |
| 20260906051017 | 83 | 218 | 3.0 | 9.0 | 0.00 | 0.00 | 0.00 | 47 | 1018.3 |
| 20260906050035 | 83 | 219 | 3.0 | 10.0 | 0.00 | 0.00 | 0.00 | 47 | 1018.2 |
| 20260906045033 | 84 | 223 | 3.0 | 7.0 | 0.00 | 0.00 | 0.00 | 46 | 1018.3 |
| 20260906044031 | 84 | 212 | 3.0 | 7.0 | 0.00 | 0.00 | 0.00 | 46 | 1018.4 |
| 20260906043030 | 84 | 205 | 2.0 | 9.0 | 0.00 | 0.00 | 0.00 | 45 | 1018.2 |
| 20260906042048 | 84 | 224 | 3.0 | 7.0 | 0.00 | 0.00 | 0.00 | 44 | 1018.2 |
| 20260906041026 | 84 | 210 | 4.0 | 9.0 | 0.00 | 0.00 | 0.00 | 44 | 1018.2 |
| 20260906040024 | 85 | 211 | 3.0 | 7.0 | 0.00 | 0.00 | 0.00 | 45 | 1018.3 |
| 20260906035023 | 86 | 210 | 3.0 | 9.0 | 0.00 | 0.00 | 0.00 | 42 | 1018.3 |
| 20260906034021 | 86 | 222 | 4.0 | 11.0 | 0.00 | 0.00 | 0.00 | 42 | 1018.3 |
| 20260906033039 | 86 | 235 | 3.0 | 8.0 | 0.00 | 0.00 | 0.00 | 42 | 1018.3 |
| 20260906032017 | 86 | 228 | 3.0 | 9.0 | 0.00 | 0.00 | 0.00 | 42 | 1018.0 |
| 20260906031016 | 87 | 222 | 3.0 | 9.0 | 0.00 | 0.00 | 0.00 | 41 | 1017.9 |
| 20260906030054 | 87 | 221 | 3.0 | 9.0 | 0.00 | 0.00 | 0.00 | 41 | 1017.5 |
| 20260906025032 | 87 | 229 | 3.0 | 17.0 | 0.00 | 0.00 | 0.00 | 42 | 1017.4 |
| 20260906024030 | 87 | 200 | 3.0 | 13.0 | 0.00 | 0.00 | 0.00 | 42 | 1017.2 |
| 20260906023028 | 87 | 225 | 3.0 | 10.0 | 0.00 | 0.00 | 0.00 | 41 | 1017.2 |
| 20260906022026 | 87 | 218 | 3.0 | 8.0 | 0.00 | 0.00 | 0.00 | 42 | 1017.1 |
| 20260906021025 | 88 | 227 | 2.0 | 7.0 | 0.00 | 0.00 | 0.00 | 43 | 1017.3 |
| 20260906020023 | 88 | 208 | 2.0 | 9.0 | 0.00 | 0.00 | 0.00 | 42 | 1017.2 |
| 20260906015021 | 89 | 219 | 3.0 | 9.0 | 0.00 | 0.00 | 0.00 | 41 | 1016.9 |
| 20260906014019 | 89 | 230 | 3.0 | 8.0 | 0.00 | 0.00 | 0.00 | 40 | 1016.7 |
| 20260906013018 | 89 | 193 | 1.0 | 4.0 | 0.00 | 0.00 | 0.00 | 40 | 1016.5 |
| 20260906012016 | 90 | 200 | 2.0 | 8.0 | 0.00 | 0.00 | 0.00 | 39 | 1016.5 |
| 20260906011054 | 90 | 214 | 1.0 | 10.0 | 0.00 | 0.00 | 0.00 | 38 | 1016.5 |
| 20260906010032 | 90 | 240 | 1.0 | 9.0 | 0.00 | 0.00 | 0.00 | 38 | 1016.4 |
| 20260906005030 | 91 | 226 | 1.0 | 7.0 | 0.00 | 0.00 | 0.00 | 38 | 1016.4 |
| 20260906004028 | 91 | 191 | 2.0 | 9.0 | 0.00 | 0.00 | 0.00 | 37 | 1016.3 |
| 20260906003027 | 91 | 177 | 2.0 | 8.0 | 0.00 | 0.00 | 0.00 | 37 | 1016.3 |
| 20260906002045 | 92 | 183 | 3.0 | 12.0 | 0.00 | 0.00 | 0.00 | 37 | 1016.0 |
| 20260906001043 | 92 | 205 | 3.0 | 8.0 | 0.00 | 0.00 | 0.00 | 37 | 1016.0 |
| 20260906000021 | 93 | 170 | 3.0 | 11.0 | 0.00 | 0.00 | 0.00 | 35 | 1015.9 |
| 20260905235020 | 94 | 190 | 1.0 | 9.0 | 0.00 | 0.00 | 0.00 | 35 | 1015.9 |
| 20260905234017 | 94 | 231 | 2.0 | 6.0 | 0.00 | 0.00 | 0.00 | 34 | 1015.7 |
| 20260905233016 | 94 | 214 | 2.0 | 9.0 | 0.00 | 0.00 | 0.00 | 33 | 1015.4 |
| 20260905232034 | 94 | 207 | 3.0 | 11.0 | 0.00 | 0.00 | 0.00 | 34 | 1015.3 |
| 20260905231032 | 95 | 213 | 3.0 | 9.0 | 0.00 | 0.00 | 0.00 | 33 | 1015.5 |
| 20260905230030 | 95 | 205 | 3.0 | 8.0 | 0.00 | 0.00 | 0.00 | 33 | 1015.5 |
| 20260905225029 | 95 | 230 | 5.0 | 14.0 | 0.00 | 0.00 | 0.00 | 32 | 1015.3 |
| 20260905224027 | 97 | 231 | 4.0 | 11.0 | 0.00 | 0.00 | 0.00 | 31 | 1015.4 |
| 20260905223025 | 98 | 225 | 3.0 | 6.0 | 0.00 | 0.00 | 0.00 | 32 | 1015.5 |
| 20260905222023 | 96 | 222 | 5.0 | 14.0 | 0.00 | 0.00 | 0.00 | 33 | 1015.5 |
| 20260905221021 | 97 | 214 | 3.0 | 11.0 | 0.00 | 0.00 | 0.00 | 33 | 1015.5 |
| 20260905220019 | 98 | 209 | 5.0 | 15.0 | 0.00 | 0.00 | 0.00 | 32 | 1015.7 |
| 20260905215018 | 98 | 195 | 3.0 | 10.0 | 0.00 | 0.00 | 0.00 | 32 | 1015.6 |
| 20260905214016 | 99 | 217 | 5.0 | 11.0 | 0.00 | 0.00 | 0.00 | 31 | 1015.8 |
| 20260905213034 | 98 | 151 | 3.0 | 8.0 | 0.00 | 0.00 | 0.00 | 32 | 1015.8 |
| 20260905212032 | 98 | 209 | 4.0 | 12.0 | 0.00 | 0.00 | 0.00 | 32 | 1015.9 |